Location: Brede
(50.9167°N, 0.6000°E)
Time: 01:19:51
(UTC+00:00)

Meteor 1-24 Rocket - Pass Details

Date: 08 August 2020
Orbit: 789 x 928 km, 81.3° (Epoch: 19 September)

Event Time Altitude Azimuth Distance (km) Brightness Sun altitude
Rises 01:46:21 0° 348° (NNW) 3,413 7.7 -19.3°
Reaches altitude 10° 01:48:50 10° 351° (N) 2,454 6.9 -19.2°
Maximum altitude 01:54:22 72° 76° (ENE) 858 3.8 -18.8°
Enters shadow 01:58:25 18° 158° (SSE) 1,885 5.2 -18.5°
